Time,TemperatureF,DewpointF,PressureIn,WindDirection,WindDirectionDegrees,WindSpeedMPH,WindSpeedGustMPH,Humidity,HourlyPrecipIn,Conditions,Clouds,dailyrainin,SoftwareType,DateUTC
2013-04-29 00:02:00,58.0,49.0,29.86,SSE,157,4.0,7.0,73,-99.99,,,-99.99,,2013-04-29 05:02:00,
2013-04-29 00:12:00,58.0,49.0,29.86,SSE,157,4.0,6.0,73,-99.99,,,-99.99,,2013-04-29 05:12:00,
2013-04-29 00:22:00,58.0,49.0,29.86,SE,135,4.0,7.0,74,-99.99,,,-99.99,,2013-04-29 05:22:00,
2013-04-29 00:32:00,57.0,49.0,29.86,SE,135,4.0,7.0,74,-99.99,,,-99.99,,2013-04-29 05:32:00,
2013-04-29 00:42:00,57.0,49.0,29.86,SSE,157,4.0,7.0,74,-99.99,,,-99.99,,2013-04-29 05:42:00,
2013-04-29 00:52:00,57.0,49.0,29.86,SSE,157,4.0,8.0,75,-99.99,,,-99.99,,2013-04-29 05:52:00,
2013-04-29 01:02:00,57.0,49.0,29.87,South,180,4.0,6.0,74,-99.99,,,-99.99,,2013-04-29 06:02:00,
2013-04-29 01:11:00,57.0,49.0,29.87,SE,135,5.0,7.0,75,-99.99,,,-99.99,,2013-04-29 06:11:00,
2013-04-29 01:21:00,57.0,49.0,29.86,South,180,5.0,8.0,74,-99.99,,,-99.99,,2013-04-29 06:21:00,
2013-04-29 01:32:00,57.0,49.0,29.87,South,180,5.0,7.0,74,-99.99,,,-99.99,,2013-04-29 06:32:00,
2013-04-29 01:42:00,57.0,48.0,29.86,South,180,7.0,9.0,74,-99.99,,,-99.99,,2013-04-29 06:42:00,
2013-04-29 01:51:00,56.0,48.0,29.87,South,180,7.0,10.0,75,-99.99,,,-99.99,,2013-04-29 06:51:00,
2013-04-29 02:01:00,56.0,48.0,29.87,SSE,157,7.0,11.0,76,-99.99,,,-99.99,,2013-04-29 07:01:00,
2013-04-29 02:11:00,56.0,48.0,29.86,South,180,7.0,9.0,76,-99.99,,,-99.99,,2013-04-29 07:11:00,
2013-04-29 02:21:00,55.0,48.0,29.86,South,180,6.0,8.0,77,-99.99,,,-99.99,,2013-04-29 07:21:00,
2013-04-29 02:32:00,55.0,48.0,29.86,SSE,157,7.0,9.0,77,-99.99,,,-99.99,,2013-04-29 07:32:00,
2013-04-29 02:41:00,55.0,48.0,29.85,South,180,7.0,10.0,77,-99.99,,,-99.99,,2013-04-29 07:41:00,
2013-04-29 02:52:00,55.0,48.0,29.85,SSE,157,7.0,11.0,78,-99.99,,,-99.99,,2013-04-29 07:52:00,
2013-04-29 03:03:00,55.0,48.0,29.85,South,180,7.0,10.0,78,-99.99,,,-99.99,,2013-04-29 08:03:00,
2013-04-29 03:11:00,55.0,48.0,29.85,SSE,157,8.0,10.0,78,-99.99,,,-99.99,,2013-04-29 08:11:00,
2013-04-29 03:21:00,55.0,48.0,29.85,SE,135,8.0,12.0,77,-99.99,,,-99.99,,2013-04-29 08:21:00,
2013-04-29 03:32:00,54.0,48.0,29.84,South,180,7.0,10.0,78,-99.99,,,-99.99,,2013-04-29 08:32:00,
2013-04-29 03:42:00,55.0,48.0,29.84,South,180,7.0,12.0,78,-99.99,,,-99.99,,2013-04-29 08:42:00,
2013-04-29 03:51:00,54.0,48.0,29.84,SSE,157,7.0,9.0,79,-99.99,,,-99.99,,2013-04-29 08:51:00,
2013-04-29 04:01:00,55.0,48.0,29.85,South,180,8.0,11.0,78,-99.99,,,-99.99,,2013-04-29 09:01:00,
2013-04-29 04:12:00,54.0,48.0,29.85,South,180,8.0,11.0,78,-99.99,,,-99.99,,2013-04-29 09:12:00,
2013-04-29 04:21:00,54.0,48.0,29.85,South,180,9.0,12.0,79,-99.99,,,-99.99,,2013-04-29 09:21:00,
2013-04-29 04:32:00,54.0,48.0,29.85,SSE,157,8.0,11.0,80,-99.99,,,-99.99,,2013-04-29 09:32:00,
2013-04-29 04:42:00,54.0,48.0,29.85,SSE,157,8.0,12.0,80,-99.99,,,-99.99,,2013-04-29 09:42:00,
2013-04-29 04:52:00,54.0,48.0,29.85,South,180,8.0,11.0,79,-99.99,,,-99.99,,2013-04-29 09:52:00,
2013-04-29 05:02:00,54.0,48.0,29.85,South,180,8.0,12.0,81,-99.99,,,-99.99,,2013-04-29 10:02:00,
2013-04-29 05:12:00,53.0,48.0,29.86,SSE,157,7.0,11.0,82,-99.99,,,-99.99,,2013-04-29 10:12:00,
2013-04-29 05:23:00,54.0,48.0,29.85,SSW,202,7.0,9.0,82,-99.99,,,-99.99,,2013-04-29 10:23:00,
2013-04-29 05:32:00,53.0,48.0,29.86,South,180,7.0,11.0,82,-99.99,,,-99.99,,2013-04-29 10:32:00,
2013-04-29 05:42:00,54.0,48.0,29.85,SSW,202,8.0,11.0,81,-99.99,,,-99.99,,2013-04-29 10:42:00,
2013-04-29 05:52:00,53.0,48.0,29.86,SSE,157,9.0,12.0,82,-99.99,,,-99.99,,2013-04-29 10:52:00,
2013-04-29 06:02:00,53.0,48.0,29.86,South,180,9.0,12.0,82,-99.99,,,-99.99,,2013-04-29 11:02:00,
2013-04-29 06:12:00,53.0,48.0,29.86,SSE,157,9.0,14.0,82,-99.99,,,-99.99,,2013-04-29 11:12:00,
2013-04-29 06:21:00,54.0,48.0,29.86,South,180,9.0,12.0,82,-99.99,,,-99.99,,2013-04-29 11:21:00,
2013-04-29 06:32:00,54.0,48.0,29.86,South,180,9.0,11.0,82,-99.99,,,-99.99,,2013-04-29 11:32:00,
2013-04-29 06:41:00,54.0,48.0,29.86,SSE,157,9.0,13.0,82,-99.99,,,-99.99,,2013-04-29 11:41:00,
2013-04-29 06:52:00,54.0,48.0,29.87,South,180,8.0,12.0,81,-99.99,,,-99.99,,2013-04-29 11:52:00,
2013-04-29 07:01:00,54.0,48.0,29.87,South,180,8.0,12.0,81,-99.99,,,-99.99,,2013-04-29 12:01:00,
2013-04-29 07:12:00,55.0,49.0,29.87,South,180,8.0,12.0,80,-99.99,,,-99.99,,2013-04-29 12:12:00,
2013-04-29 07:22:00,55.0,49.0,29.87,South,180,7.0,10.0,79,-99.99,,,-99.99,,2013-04-29 12:22:00,
2013-04-29 07:31:00,56.0,50.0,29.87,South,180,7.0,11.0,78,-99.99,,,-99.99,,2013-04-29 12:31:00,
2013-04-29 07:41:00,57.0,50.0,29.87,SSW,202,8.0,11.0,78,-99.99,,,-99.99,,2013-04-29 12:41:00,
2013-04-29 07:51:00,58.0,50.0,29.87,SSW,202,8.0,11.0,77,-99.99,,,-99.99,,2013-04-29 12:51:00,
2013-04-29 08:01:00,59.0,51.0,29.87,SSW,202,9.0,12.0,76,-99.99,,,-99.99,,2013-04-29 13:01:00,
2013-04-29 08:11:00,60.0,52.0,29.88,SSW,202,8.0,12.0,75,-99.99,,,-99.99,,2013-04-29 13:11:00,
2013-04-29 08:21:00,60.0,52.0,29.88,South,180,7.0,12.0,75,-99.99,,,-99.99,,2013-04-29 13:21:00,
2013-04-29 08:31:00,61.0,52.0,29.88,SSW,202,8.0,15.0,73,-99.99,,,-99.99,,2013-04-29 13:31:00,
2013-04-29 08:42:00,62.0,54.0,29.87,SW,225,9.0,14.0,73,-99.99,,,-99.99,,2013-04-29 13:42:00,
2013-04-29 08:52:00,63.0,54.0,29.87,SSW,202,8.0,13.0,71,-99.99,,,-99.99,,2013-04-29 13:52:00,
2013-04-29 09:02:00,64.0,55.0,29.87,South,180,9.0,13.0,72,-99.99,,,-99.99,,2013-04-29 14:02:00,
2013-04-29 09:11:00,65.0,56.0,29.87,SSW,202,9.0,13.0,73,-99.99,,,-99.99,,2013-04-29 14:11:00,
2013-04-29 09:21:00,66.0,57.0,29.86,South,180,10.0,14.0,72,-99.99,,,-99.99,,2013-04-29 14:21:00,
2013-04-29 09:32:00,67.0,58.0,29.86,SSW,202,10.0,16.0,73,-99.99,,,-99.99,,2013-04-29 14:32:00,
2013-04-29 09:42:00,68.0,59.0,29.86,SSW,202,10.0,16.0,71,-99.99,,,-99.99,,2013-04-29 14:42:00,
2013-04-29 09:51:00,69.0,59.0,29.85,SSW,202,11.0,17.0,72,-99.99,,,-99.99,,2013-04-29 14:51:00,
2013-04-29 10:01:00,70.0,60.0,29.85,SSW,202,12.0,17.0,71,-99.99,,,-99.99,,2013-04-29 15:01:00,
2013-04-29 10:12:00,70.0,59.0,29.85,SSW,202,14.0,21.0,68,-99.99,,,-99.99,,2013-04-29 15:12:00,
2013-04-29 10:21:00,72.0,61.0,29.84,South,180,12.0,21.0,69,-99.99,,,-99.99,,2013-04-29 15:21:00,
2013-04-29 10:33:00,71.0,60.0,29.84,SSW,202,15.0,21.0,67,-99.99,,,-99.99,,2013-04-29 15:33:00,
2013-04-29 10:42:00,72.0,59.0,29.84,South,180,14.0,21.0,65,-99.99,,,-99.99,,2013-04-29 15:42:00,
2013-04-29 10:52:00,72.0,61.0,29.84,SW,225,14.0,18.0,68,-99.99,,,-99.99,,2013-04-29 15:52:00,
2013-04-29 11:02:00,72.0,61.0,29.84,SW,225,14.0,20.0,67,-99.99,,,-99.99,,2013-04-29 16:02:00,
2013-04-29 11:12:00,73.0,61.0,29.83,SSW,202,13.0,18.0,66,-99.99,,,-99.99,,2013-04-29 16:12:00,
2013-04-29 11:23:00,73.0,59.0,29.83,SW,225,13.0,19.0,61,-99.99,,,-99.99,,2013-04-29 16:23:00,
2013-04-29 11:33:00,73.0,60.0,29.83,SSW,202,13.0,18.0,62,-99.99,,,-99.99,,2013-04-29 16:33:00,
2013-04-29 11:42:00,74.0,60.0,29.83,SW,225,12.0,18.0,62,-99.99,,,-99.99,,2013-04-29 16:42:00,
2013-04-29 11:52:00,74.0,61.0,29.83,SW,225,13.0,20.0,63,-99.99,,,-99.99,,2013-04-29 16:52:00,
2013-04-29 12:02:00,75.0,62.0,29.82,SSW,202,12.0,19.0,63,-99.99,,,-99.99,,2013-04-29 17:02:00,
2013-04-29 12:12:00,75.0,62.0,29.82,SW,225,13.0,18.0,64,-99.99,,,-99.99,,2013-04-29 17:12:00,
2013-04-29 12:22:00,75.0,60.0,29.81,South,180,13.0,18.0,59,-99.99,,,-99.99,,2013-04-29 17:22:00,
2013-04-29 12:32:00,76.0,60.0,29.81,South,180,13.0,18.0,58,-99.99,,,-99.99,,2013-04-29 17:32:00,
2013-04-29 12:42:00,76.0,61.0,29.80,SSW,202,14.0,20.0,60,-99.99,,,-99.99,,2013-04-29 17:42:00,
2013-04-29 12:52:00,77.0,60.0,29.80,SW,225,13.0,18.0,57,-99.99,,,-99.99,,2013-04-29 17:52:00,
2013-04-29 13:01:00,78.0,61.0,29.79,SSE,157,11.0,17.0,56,-99.99,,,-99.99,,2013-04-29 18:01:00,
2013-04-29 13:13:00,79.0,64.0,29.79,SSW,202,9.0,14.0,60,-99.99,,,-99.99,,2013-04-29 18:13:00,
2013-04-29 13:22:00,79.0,60.0,29.79,South,180,10.0,13.0,53,-99.99,,,-99.99,,2013-04-29 18:22:00,
2013-04-29 13:32:00,79.0,60.0,29.78,SSE,157,12.0,19.0,52,-99.99,,,-99.99,,2013-04-29 18:32:00,
2013-04-29 13:42:00,79.0,61.0,29.78,SSW,202,11.0,16.0,53,-99.99,,,-99.99,,2013-04-29 18:42:00,
2013-04-29 13:51:00,80.0,59.0,29.78,SW,225,11.0,18.0,49,-99.99,,,-99.99,,2013-04-29 18:51:00,
2013-04-29 14:01:00,80.0,62.0,29.77,SSW,202,11.0,15.0,55,-99.99,,,-99.99,,2013-04-29 19:01:00,
2013-04-29 14:11:00,81.0,61.0,29.77,South,180,10.0,16.0,52,-99.99,,,-99.99,,2013-04-29 19:11:00,
2013-04-29 14:21:00,80.0,60.0,29.76,South,180,12.0,17.0,50,-99.99,,,-99.99,,2013-04-29 19:21:00,
2013-04-29 14:31:00,81.0,58.0,29.75,South,180,10.0,17.0,46,-99.99,,,-99.99,,2013-04-29 19:31:00,
2013-04-29 14:41:00,81.0,59.0,29.75,SSW,202,11.0,17.0,46,-99.99,,,-99.99,,2013-04-29 19:41:00,
2013-04-29 14:52:00,81.0,58.0,29.75,SSW,202,12.0,16.0,45,-99.99,,,-99.99,,2013-04-29 19:52:00,
2013-04-29 15:02:00,81.0,59.0,29.75,SSW,202,13.0,20.0,47,-99.99,,,-99.99,,2013-04-29 20:02:00,
2013-04-29 15:11:00,82.0,61.0,29.74,South,180,12.0,21.0,50,-99.99,,,-99.99,,2013-04-29 20:11:00,
2013-04-29 15:21:00,82.0,59.0,29.74,SW,225,13.0,18.0,46,-99.99,,,-99.99,,2013-04-29 20:21:00,
2013-04-29 15:32:00,83.0,61.0,29.74,SW,225,10.0,14.0,48,-99.99,,,-99.99,,2013-04-29 20:32:00,
2013-04-29 15:42:00,82.0,59.0,29.73,SSW,202,12.0,17.0,46,-99.99,,,-99.99,,2013-04-29 20:42:00,
2013-04-29 15:52:00,82.0,60.0,29.73,SW,225,13.0,18.0,47,-99.99,,,-99.99,,2013-04-29 20:52:00,
2013-04-29 16:01:00,82.0,60.0,29.73,SW,225,12.0,18.0,46,-99.99,,,-99.99,,2013-04-29 21:01:00,
2013-04-29 16:11:00,82.0,58.0,29.73,SW,225,13.0,17.0,44,-99.99,,,-99.99,,2013-04-29 21:11:00,
2013-04-29 16:21:00,82.0,62.0,29.72,SSW,202,12.0,18.0,50,-99.99,,,-99.99,,2013-04-29 21:21:00,
2013-04-29 16:33:00,82.0,61.0,29.72,SSW,202,12.0,20.0,48,-99.99,,,-99.99,,2013-04-29 21:33:00,
2013-04-29 16:42:00,82.0,62.0,29.72,South,180,12.0,17.0,50,-99.99,,,-99.99,,2013-04-29 21:42:00,
2013-04-29 16:53:00,83.0,61.0,29.71,SSW,202,10.0,14.0,49,-99.99,,,-99.99,,2013-04-29 21:53:00,
2013-04-29 17:02:00,82.0,61.0,29.71,SSW,202,13.0,19.0,49,-99.99,,,-99.99,,2013-04-29 22:02:00,
2013-04-29 17:13:00,82.0,60.0,29.71,SSW,202,12.0,17.0,47,-99.99,,,-99.99,,2013-04-29 22:13:00,
2013-04-29 17:23:00,82.0,60.0,29.71,SSW,202,12.0,16.0,48,-99.99,,,-99.99,,2013-04-29 22:23:00,
2013-04-29 17:32:00,82.0,59.0,29.71,SSW,202,12.0,17.0,45,-99.99,,,-99.99,,2013-04-29 22:32:00,
2013-04-29 17:42:00,82.0,60.0,29.71,SSW,202,11.0,18.0,47,-99.99,,,-99.99,,2013-04-29 22:42:00,
2013-04-29 17:52:00,82.0,61.0,29.71,SSW,202,11.0,16.0,49,-99.99,,,-99.99,,2013-04-29 22:52:00,
2013-04-29 18:02:00,82.0,60.0,29.71,South,180,10.0,16.0,48,-99.99,,,-99.99,,2013-04-29 23:02:00,
2013-04-29 18:11:00,81.0,62.0,29.71,SSW,202,9.0,13.0,51,-99.99,,,-99.99,,2013-04-29 23:11:00,
2013-04-29 18:22:00,81.0,61.0,29.71,SW,225,9.0,16.0,50,-99.99,,,-99.99,,2013-04-29 23:22:00,
2013-04-29 18:32:00,81.0,61.0,29.71,SSW,202,10.0,14.0,50,-99.99,,,-99.99,,2013-04-29 23:32:00,
2013-04-29 18:42:00,81.0,60.0,29.71,SSW,202,10.0,14.0,50,-99.99,,,-99.99,,2013-04-29 23:42:00,
2013-04-29 18:52:00,80.0,60.0,29.71,SSW,202,8.0,12.0,51,-99.99,,,-99.99,,2013-04-29 23:52:00,
2013-04-29 19:01:00,79.0,60.0,29.71,SSW,202,8.0,12.0,52,-99.99,,,-99.99,,2013-04-30 00:01:00,
2013-04-29 19:11:00,79.0,60.0,29.71,SSW,202,7.0,11.0,53,-99.99,,,-99.99,,2013-04-30 00:11:00,
2013-04-29 19:21:00,79.0,61.0,29.72,SW,225,7.0,12.0,54,-99.99,,,-99.99,,2013-04-30 00:21:00,
2013-04-29 19:32:00,78.0,60.0,29.72,SSW,202,8.0,11.0,54,-99.99,,,-99.99,,2013-04-30 00:32:00,
2013-04-29 19:41:00,76.0,59.0,29.72,SSW,202,8.0,11.0,55,-99.99,,,-99.99,,2013-04-30 00:41:00,
2013-04-29 19:51:00,76.0,58.0,29.71,SW,225,7.0,10.0,54,-99.99,,,-99.99,,2013-04-30 00:51:00,
2013-04-29 20:02:00,76.0,58.0,29.71,South,180,7.0,11.0,53,-99.99,,,-99.99,,2013-04-30 01:02:00,
2013-04-29 20:11:00,76.0,58.0,29.72,South,180,6.0,8.0,54,-99.99,,,-99.99,,2013-04-30 01:11:00,
2013-04-29 20:21:00,75.0,58.0,29.72,South,180,5.0,8.0,57,-99.99,,,-99.99,,2013-04-30 01:21:00,
2013-04-29 20:32:00,74.0,58.0,29.72,South,180,5.0,8.0,57,-99.99,,,-99.99,,2013-04-30 01:32:00,
2013-04-29 20:41:00,74.0,58.0,29.73,South,180,5.0,7.0,58,-99.99,,,-99.99,,2013-04-30 01:41:00,
2013-04-29 20:51:00,73.0,57.0,29.73,South,180,5.0,7.0,59,-99.99,,,-99.99,,2013-04-30 01:51:00,
2013-04-29 21:01:00,73.0,57.0,29.73,SSW,202,6.0,8.0,56,-99.99,,,-99.99,,2013-04-30 02:01:00,
2013-04-29 21:11:00,73.0,56.0,29.73,South,180,6.0,9.0,55,-99.99,,,-99.99,,2013-04-30 02:11:00,
2013-04-29 21:21:00,72.0,57.0,29.74,South,180,5.0,8.0,59,-99.99,,,-99.99,,2013-04-30 02:21:00,
2013-04-29 21:31:00,72.0,56.0,29.74,SSE,157,7.0,11.0,57,-99.99,,,-99.99,,2013-04-30 02:31:00,
2013-04-29 21:41:00,72.0,55.0,29.74,SSE,157,8.0,11.0,55,-99.99,,,-99.99,,2013-04-30 02:41:00,
2013-04-29 21:51:00,71.0,54.0,29.74,SSE,157,8.0,11.0,55,-99.99,,,-99.99,,2013-04-30 02:51:00,
2013-04-29 22:01:00,72.0,54.0,29.74,South,180,8.0,12.0,54,-99.99,,,-99.99,,2013-04-30 03:01:00,
2013-04-29 22:11:00,72.0,54.0,29.74,South,180,9.0,12.0,53,-99.99,,,-99.99,,2013-04-30 03:11:00,
2013-04-29 22:21:00,72.0,54.0,29.74,South,180,10.0,14.0,52,-99.99,,,-99.99,,2013-04-30 03:21:00,
2013-04-29 22:33:00,72.0,54.0,29.74,SSE,157,10.0,14.0,53,-99.99,,,-99.99,,2013-04-30 03:33:00,
2013-04-29 22:42:00,72.0,53.0,29.74,South,180,10.0,15.0,52,-99.99,,,-99.99,,2013-04-30 03:42:00,
2013-04-29 22:52:00,72.0,54.0,29.74,SSE,157,9.0,14.0,53,-99.99,,,-99.99,,2013-04-30 03:52:00,
2013-04-29 23:02:00,71.0,54.0,29.74,South,180,10.0,14.0,54,-99.99,,,-99.99,,2013-04-30 04:02:00,
2013-04-29 23:12:00,71.0,54.0,29.74,SSE,157,11.0,16.0,55,-99.99,,,-99.99,,2013-04-30 04:12:00,
2013-04-29 23:22:00,71.0,54.0,29.74,SSE,157,12.0,18.0,56,-99.99,,,-99.99,,2013-04-30 04:22:00,
2013-04-29 23:32:00,71.0,54.0,29.73,SSE,157,11.0,16.0,56,-99.99,,,-99.99,,2013-04-30 04:32:00,
2013-04-29 23:42:00,70.0,54.0,29.74,South,180,10.0,14.0,56,-99.99,,,-99.99,,2013-04-30 04:42:00,
2013-04-29 23:52:00,70.0,54.0,29.74,South,180,10.0,13.0,57,-99.99,,,-99.99,,2013-04-30 04:52:00,